| Date | Temp High/Low | Dew Pt High/Low | Humidity | Wind | Max Wind | Wind Gust | Pressure | Precip. | Condition |
|---|---|---|---|---|---|---|---|---|---|
| 11/30/2010 | 81 °F / 68 °F | 68 °F / 57 °F | 64 % | 12 mph | - | 30.04 in | 0 in | ||
| 11/29/2010 | 79 °F / 64 °F | 63 °F / 55 °F | 61 % | 8 mph | - | 30.03 in | 0 in | ||
| 11/28/2010 | 81 °F / 66 °F | 63 °F / 52 °F | 57 % | 9 mph | - | 29.98 in | 0 in | ||
| 11/27/2010 | 81 °F / 66 °F | 61 °F / 54 °F | 59 % | 13 mph | - | 30 in | 0 in | ||
| 11/26/2010 | 81 °F / 70 °F | 61 °F / 43 °F | 52 % | 12 mph | - | 30.04 in | 0 in | ||
| 11/25/2010 | 82 °F / 68 °F | 63 °F / 45 °F | 55 % | 8 mph | - | 30.04 in | 0 in | ||
| 11/24/2010 | 84 °F / 72 °F | 64 °F / 54 °F | 60 % | 13 mph | - | 29.98 in | 0 in | ||
| 11/23/2010 | 82 °F / 68 °F | 66 °F / 57 °F | 65 % | 10 mph | - | 29.85 in | 0 in | ||
| 11/22/2010 | 82 °F / 66 °F | 61 °F / 50 °F | 52 % | 10 mph | - | 29.81 in | 0 in | ||
| 11/21/2010 | 82 °F / 68 °F | 61 °F / 41 °F | 48 % | 9 mph | - | 29.81 in | 0 in | ||
| 11/20/2010 | 84 °F / 72 °F | 64 °F / 48 °F | 48 % | 13 mph | - | 29.87 in | 0 in | ||
| 11/19/2010 | 84 °F / 73 °F | 63 °F / 52 °F | 50 % | 10 mph | - | 29.99 in | 0 in | ||
| 11/18/2010 | 84 °F / 73 °F | 68 °F / 54 °F | 60 % | 8 mph | - | 30.03 in | 0 in | ||
| 11/17/2010 | 86 °F / 73 °F | 70 °F / 55 °F | 55 % | 10 mph | - | 30 in | 0 in | ||
| 11/16/2010 | 86 °F / 75 °F | 70 °F / 61 °F | 65 % | 97 mph | - | 30 in | 0 in | ||
| 11/15/2010 | 86 °F / 72 °F | 70 °F / 41 °F | 54 % | 13 mph | - | 30.03 in | 0 in | ||
| 11/14/2010 | 88 °F / 72 °F | 68 °F / 50 °F | 56 % | 14 mph | - | 29.94 in | 0 in | ||
| 11/13/2010 | 86 °F / 72 °F | 70 °F / 48 °F | 55 % | 12 mph | - | 29.84 in | 0 in | ||
| 11/12/2010 | 88 °F / 72 °F | 68 °F / 50 °F | 51 % | 15 mph | - | 29.86 in | 0 in | ||
| 11/11/2010 | 88 °F / 75 °F | 70 °F / 55 °F | 63 % | 16 mph | - | 29.96 in | 0 in | ||
| 11/10/2010 | 88 °F / 73 °F | 72 °F / 59 °F | 66 % | 96 mph | - | 30.05 in | 0 in | ||
| 11/9/2010 | 90 °F / 72 °F | 73 °F / 66 °F | 70 % | 24 mph | - | 29.98 in | 0 in | ||
| 11/8/2010 | 86 °F / 77 °F | 72 °F / 61 °F | 63 % | 17 mph | - | 29.92 in | 0 in | ||
| 11/7/2010 | 90 °F / 77 °F | 70 °F / 52 °F | 57 % | 10 mph | - | 29.89 in | 0 in | ||
| 11/6/2010 | 88 °F / 75 °F | 66 °F / 55 °F | 52 % | 12 mph | - | 29.89 in | 0 in | ||
| 11/5/2010 | 86 °F / 77 °F | 72 °F / 55 °F | 49 % | 14 mph | - | 29.96 in | 0 in | ||
| 11/4/2010 | 91 °F / 79 °F | 75 °F / 63 °F | 66 % | 20 mph | - | 29.99 in | 0 in | ||
| 11/3/2010 | 93 °F / 81 °F | 73 °F / 64 °F | 61 % | 13 mph | - | 29.95 in | 0 in | ||
| 11/2/2010 | 91 °F / 77 °F | 72 °F / 59 °F | 54 % | 17 mph | - | 29.84 in | 0 in | ||
| 11/1/2010 | 90 °F / 79 °F | 70 °F / 61 °F | 58 % | 14 mph | - | 29.89 in | 0 in |